Weather History for Lancaster, OH

Change the Weather History Date:

Saturday, January 11, 2014

  Actual Average Record
Temperature  
Mean Temperature 45 °F -  
Max Temperature 54 °F 32 °F 60 °F (2013)
Min Temperature 36 °F 14 °F -13 °F (1982)
Degree Days  
Heating Degree Days 20    
Moisture  
Dew Point 43 °F    
Average Humidity 84    
Maximum Humidity 96    
Minimum Humidity 71    
Precipitation  
Precipitation 0.85 in - - ()
Sea Level Pressure  
Sea Level Pressure 29.60 in    
Wind  
Wind Speed 10 mph (SW)    
Max Wind Speed 18 mph    
Max Gust Speed 32 mph    
Visibility 7 miles    
Events Rain    
Averages and records for this station are not official NWS values.
T = Trace of Precipitation, MM = Missing Value Source: NWS Daily Summary

Daily Weather History Graph

Daily Weather History Graph

Search for Another Location

Airport:

Trip Planner

Search our weather history database for the weather conditions in past years. The results will help you decide how hot, cold, wet, or windy it might be!

Date:

Astronomy

Jan. 11, 2014 Rise Set
Actual Time 7:51 AM EST 5:26 PM EST
Civil Twilight 7:21 AM EST 5:56 PM EST
Nautical Twilight 6:47 AM EST 6:29 PM EST
Astronomical Twilight 6:15 AM EST 7:02 PM EST
Moon 2:09 PM EST (1/11) 3:55 AM EST (1/11)
Length of Visible Light 10h 34m
Length of Day
9h 35m
Waxing Gibbous, 83% of the Moon is Illuminated
Jan 11
Waxing Gibbous
Jan 15
Full
Jan 24
Last Quarter
Jan 30
New
Feb 6
First Quarter

Hourly Weather History & Observations

Time (EST) Temp. Windchill Dew Point Humidity Pressure Visibility Wind Dir Wind Speed Gust Speed Precip Events Conditions
12:53 AM 52.0 °F - 46.9 °F 83% 29.75 in 10.0 mi South 12.7 mph - N/A   Overcast
1:53 AM 52.0 °F - 46.9 °F 83% 29.73 in 10.0 mi South 8.1 mph - N/A   Overcast
2:53 AM 52.0 °F - 46.9 °F 83% 29.71 in 10.0 mi SW 6.9 mph - N/A   Overcast
3:01 AM 51.8 °F - 46.4 °F 82% 29.71 in 2.0 mi WSW 4.6 mph - 0.10 in Rain Heavy Rain
3:08 AM 51.8 °F - 48.2 °F 88% 29.71 in 1.5 mi SSW 3.5 mph - 0.13 in Rain Heavy Rain
3:14 AM 51.8 °F - 48.2 °F 88% 29.70 in 2.5 mi SSW 4.6 mph - 0.16 in Rain Heavy Rain
3:24 AM 51.8 °F - 48.2 °F 88% 29.68 in 4.0 mi SW 4.6 mph - 0.18 in Rain Light Rain
3:46 AM 50.0 °F - 48.2 °F 94% 29.69 in 2.0 mi SSW 6.9 mph - 0.25 in Rain Rain
3:53 AM 51.1 °F - 48.9 °F 92% 29.70 in 1.8 mi SW 9.2 mph - 0.28 in Rain Heavy Rain
3:57 AM 51.8 °F - 48.2 °F 88% 29.69 in 2.5 mi SSW 8.1 mph - 0.02 in Rain Heavy Rain
4:03 AM 51.8 °F - 48.2 °F 88% 29.67 in 2.0 mi SSW 6.9 mph - 0.06 in Rain Heavy Rain
4:10 AM 51.8 °F - 48.2 °F 88% 29.66 in 3.0 mi South 6.9 mph - 0.07 in Rain Rain
4:53 AM 50.0 °F - 48.0 °F 93% 29.62 in 3.0 mi SSE 4.6 mph - 0.19 in Rain Heavy Rain
5:53 AM 51.1 °F - 48.9 °F 92% 29.61 in 4.0 mi SSW 6.9 mph - 0.12 in Rain Rain
6:53 AM 50.0 °F - 48.9 °F 96% 29.59 in 4.0 mi South 6.9 mph - 0.13 in Rain Rain
7:53 AM 51.1 °F - 48.9 °F 92% 29.56 in 10.0 mi SSW 8.1 mph - 0.11 in Rain Light Rain
8:53 AM 51.1 °F - 48.9 °F 92% 29.53 in 10.0 mi South 9.2 mph - N/A   Overcast
9:12 AM 51.8 °F - 48.2 °F 88% 29.52 in 10.0 mi South 8.1 mph - N/A   Overcast
9:53 AM 51.1 °F - 48.9 °F 92% 29.50 in 10.0 mi South 9.2 mph - N/A   Overcast
10:53 AM 53.1 °F - 50.0 °F 89% 29.50 in 10.0 mi SSW 13.8 mph 21.9 mph N/A   Overcast
11:30 AM 51.8 °F - 50.0 °F 94% 29.49 in 2.5 mi SW 12.7 mph 20.7 mph 0.01 in Rain Light Rain
11:34 AM 51.8 °F - 50.0 °F 94% 29.49 in 2.0 mi SW 12.7 mph 20.7 mph 0.02 in Rain Rain
11:39 AM 51.8 °F - 50.0 °F 94% 29.48 in 3.0 mi SW 11.5 mph 19.6 mph 0.02 in Rain Light Rain
11:53 AM 53.1 °F - 50.0 °F 89% 29.48 in 10.0 mi SW 15.0 mph 24.2 mph 0.02 in   Overcast
12:02 PM 53.6 °F - 48.2 °F 82% 29.47 in 10.0 mi SW 15.0 mph 23.0 mph N/A   Overcast
12:53 PM 54.0 °F - 48.0 °F 80% 29.45 in 10.0 mi SW 18.4 mph 25.3 mph N/A   Mostly Cloudy
1:01 PM 53.6 °F - 46.4 °F 77% 29.44 in 10.0 mi SW 17.3 mph 27.6 mph N/A   Partly Cloudy
1:53 PM 52.0 °F - 44.1 °F 74% 29.45 in 10.0 mi West 18.4 mph 27.6 mph N/A   Overcast
2:41 PM 46.4 °F 39.2 °F 37.4 °F 71% 29.49 in 10.0 mi West 18.4 mph 27.6 mph N/A   Overcast
2:53 PM 46.0 °F 39.3 °F 37.0 °F 71% 29.50 in 10.0 mi West 16.1 mph 24.2 mph N/A   Overcast
3:15 PM 46.4 °F 39.8 °F 37.4 °F 71% 29.50 in 10.0 mi West 16.1 mph 32.2 mph N/A   Overcast
3:53 PM 45.0 °F 37.6 °F 37.0 °F 74% 29.54 in 10.0 mi West 17.3 mph 24.2 mph N/A   Overcast
4:53 PM 42.1 °F 33.9 °F 34.0 °F 73% 29.58 in 10.0 mi West 17.3 mph 25.3 mph N/A   Overcast
5:06 PM 41.0 °F 32.8 °F 33.8 °F 76% 29.58 in 10.0 mi West 16.1 mph 24.2 mph N/A   Mostly Cloudy
5:48 PM 41.0 °F 33.9 °F 33.8 °F 76% 29.59 in 10.0 mi West 12.7 mph - N/A   Overcast
5:53 PM 41.0 °F 33.9 °F 33.1 °F 73% 29.60 in 10.0 mi West 12.7 mph - N/A   Overcast
6:53 PM 39.9 °F 32.9 °F 33.1 °F 77% 29.64 in 10.0 mi West 11.5 mph 20.7 mph N/A   Overcast
7:53 PM 37.9 °F 29.6 °F 32.0 °F 79% 29.67 in 10.0 mi West 13.8 mph 26.5 mph N/A   Overcast
8:53 PM 37.0 °F 27.4 °F 30.0 °F 76% 29.73 in 10.0 mi West 17.3 mph 21.9 mph N/A   Overcast
9:53 PM 36.0 °F 29.6 °F 30.0 °F 79% 29.76 in 10.0 mi West 8.1 mph 19.6 mph N/A   Overcast
10:53 PM 36.0 °F 29.0 °F 28.9 °F 76% 29.78 in 10.0 mi West 9.2 mph - N/A   Overcast
11:53 PM 36.0 °F 29.6 °F 28.9 °F 76% 29.80 in 10.0 mi WSW 8.1 mph - N/A   Overcast